• In Hungary
  • List of Countries
  • For 7 days
  • Water Temperature
  • Satellite Maps
  • Weather Map
  • News
  • Weather Widgets
  • user-avatar
    Login

    Hourly Weather Porta Westfalica

    Today, 20 November, Monday

    Time Temperature Precipitation Wind Pressure Humidity
    00:00 +2°C° 0 mm 5 mps 754 mmHg 86%
    01:00 +1°C° 0 mm 4 mps 754 mmHg 89%
    02:00 +1°C° 0 mm 5 mps 754 mmHg 89%
    03:00 +2°C° 0 mm 5 mps 754 mmHg 89%
    04:00 +2°C° 0 mm 5 mps 755 mmHg 89%
    05:00 +2°C° 0.1 mm 5 mps 755 mmHg 88%
    06:00 +2°C° 0.1 mm 5 mps 755 mmHg 88%
    07:00 +2°C° 0.1 mm 5 mps 755 mmHg 87%
    08:00 +2°C° 0.2 mm 5 mps 755 mmHg 86%
    09:00 +3°C° 0.2 mm 5 mps 755 mmHg 85%
    10:00 +3°C° 0.2 mm 6 mps 754 mmHg 84%
    11:00 +3°C° 0.3 mm 6 mps 754 mmHg 83%
    12:00 +3°C° 0.3 mm 5 mps 754 mmHg 82%
    13:00 +3°C° 0.3 mm 5 mps 753 mmHg 80%
    14:00 +3°C° 0.6 mm 5 mps 752 mmHg 82%
    15:00 +3°C° 0.6 mm 5 mps 752 mmHg 83%
    16:00 +3°C° 0.6 mm 4 mps 751 mmHg 85%
    17:00 +4°C° 1.8 mm 4 mps 750 mmHg 87%
    18:00 +4°C° 1.8 mm 4 mps 750 mmHg 90%
    19:00 +4°C° 1.8 mm 4 mps 749 mmHg 93%
    20:00 +5°C° 1.7 mm 4 mps 748 mmHg 93%
    21:00 +6°C° 1.7 mm 4 mps 748 mmHg 94%
    22:00 +7°C° 1.7 mm 5 mps 748 mmHg 95%
    23:00 +8°C° 0.7 mm 5 mps 748 mmHg 95%

    Tomorrow, 21 November, Tuesday

    Time Temperature Precipitation Wind Pressure Humidity
    00:00 +8°C° 0.7 mm 5 mps 748 mmHg 95%
    01:00 +9°C° 0.7 mm 5 mps 748 mmHg 95%
    02:00 +9°C° 0.4 mm 5 mps 748 mmHg 95%
    03:00 +9°C° 0.4 mm 5 mps 748 mmHg 94%
    04:00 +9°C° 0.4 mm 5 mps 748 mmHg 94%
    05:00 +9°C° 0.1 mm 5 mps 748 mmHg 94%
    06:00 +9°C° 0.1 mm 5 mps 748 mmHg 94%
    07:00 +9°C° 0.1 mm 5 mps 748 mmHg 94%
    08:00 +9°C° 0.1 mm 5 mps 748 mmHg 94%
    09:00 +9°C° 0.1 mm 5 mps 748 mmHg 93%
    10:00 +9°C° 0.1 mm 5 mps 749 mmHg 93%
    11:00 +10°C° 0.2 mm 4 mps 749 mmHg 93%
    12:00 +11°C° 0.2 mm 4 mps 749 mmHg 92%
    13:00 +11°C° 0.2 mm 4 mps 749 mmHg 91%
    14:00 +11°C° 0.3 mm 4 mps 749 mmHg 93%
    15:00 +11°C° 0.3 mm 4 mps 749 mmHg 94%
    16:00 +10°C° 0.3 mm 4 mps 749 mmHg 95%
    17:00 +10°C° 0.2 mm 4 mps 749 mmHg 93%
    18:00 +9°C° 0.2 mm 5 mps 749 mmHg 91%
    19:00 +9°C° 0.2 mm 6 mps 749 mmHg 89%
    20:00 +9°C° 0 mm 6 mps 749 mmHg 88%
    21:00 +8°C° 0 mm 6 mps 749 mmHg 88%
    22:00 +7°C° 0 mm 6 mps 749 mmHg 87%
    23:00 +7°C° 0 mm 6 mps 748 mmHg 86%

    Day after tomorrow, 22 November, Wednesday

    Time Temperature Precipitation Wind Pressure Humidity
    00:00 +7°C° 0 mm 6 mps 748 mmHg 86%
    01:00 +7°C° 0 mm 6 mps 748 mmHg 86%
    02:00 +8°C° 0 mm 6 mps 748 mmHg 86%
    03:00 +8°C° 0 mm 6 mps 747 mmHg 87%
    04:00 +8°C° 0 mm 6 mps 747 mmHg 87%
    05:00 +8°C° 0 mm 6 mps 747 mmHg 87%
    06:00 +8°C° 0 mm 7 mps 747 mmHg 86%
    07:00 +8°C° 0 mm 7 mps 747 mmHg 86%
    08:00 +8°C° 0 mm 7 mps 747 mmHg 85%
    09:00 +8°C° 0 mm 7 mps 747 mmHg 83%
    10:00 +9°C° 0 mm 7 mps 747 mmHg 82%
    11:00 +9°C° 0 mm 7 mps 747 mmHg 80%
    12:00 +10°C° 0 mm 7 mps 747 mmHg 77%
    13:00 +10°C° 0 mm 6 mps 747 mmHg 75%
    14:00 +10°C° 0 mm 5 mps 747 mmHg 75%
    15:00 +9°C° 0 mm 5 mps 747 mmHg 75%
    16:00 +10°C° 0 mm 4 mps 747 mmHg 76%
    17:00 +10°C° 0 mm 4 mps 747 mmHg 76%
    18:00 +8°C° 0 mm 4 mps 747 mmHg 76%
    19:00 +8°C° 0 mm 5 mps 747 mmHg 75%
    20:00 +8°C° 0 mm 5 mps 747 mmHg 73%
    21:00 +7°C° 0 mm 5 mps 746 mmHg 71%
    22:00 +7°C° 0 mm 5 mps 746 mmHg 68%
    23:00 +7°C° 0 mm 5 mps 746 mmHg 67%

    23 November, Thursday

    Time Temperature Precipitation Wind Pressure Humidity
    00:00 +7°C° 0 mm 6 mps 746 mmHg 65%
    01:00 +7°C° 0 mm 6 mps 746 mmHg 63%
    02:00 +8°C° 0 mm 6 mps 746 mmHg 63%
    03:00 +8°C° 0 mm 6 mps 745 mmHg 62%
    04:00 +8°C° 0 mm 6 mps 745 mmHg 62%
    05:00 +8°C° 0 mm 7 mps 745 mmHg 64%
    06:00 +9°C° 0 mm 7 mps 745 mmHg 65%
    07:00 +9°C° 0 mm 7 mps 745 mmHg 66%
    08:00 +10°C° 0 mm 8 mps 746 mmHg 67%
    09:00 +10°C° 0 mm 8 mps 746 mmHg 68%
    10:00 +11°C° 0 mm 9 mps 746 mmHg 69%
    11:00 +12°C° 0 mm 9 mps 747 mmHg 68%
    12:00 +12°C° 0 mm 8 mps 748 mmHg 68%
    13:00 +13°C° 0 mm 8 mps 748 mmHg 68%
    14:00 +14°C° 0 mm 7 mps 749 mmHg 71%
    15:00 +12°C° 0 mm 7 mps 749 mmHg 74%
    16:00 +13°C° 0 mm 6 mps 749 mmHg 77%
    17:00 +13°C° 0 mm 6 mps 750 mmHg 79%
    18:00 +11°C° 0 mm 6 mps 750 mmHg 81%
    19:00 +12°C° 0 mm 5 mps 751 mmHg 82%
    20:00 +12°C° 0 mm 5 mps 751 mmHg 83%
    21:00 +12°C° 0 mm 5 mps 752 mmHg 84%
    22:00 +12°C° 0 mm 5 mps 752 mmHg 85%
    23:00 +10°C° 0 mm 5 mps 752 mmHg 85%

    24 November, Friday

    Time Temperature Precipitation Wind Pressure Humidity
    00:00 +10°C° 0 mm 5 mps 752 mmHg 86%
    01:00 +10°C° 0 mm 5 mps 752 mmHg 87%
    02:00 +10°C° 0 mm 5 mps 752 mmHg 86%
    03:00 +10°C° 0 mm 5 mps 751 mmHg 85%
    04:00 +10°C° 0 mm 5 mps 751 mmHg 84%
    05:00 +10°C° 0 mm 5 mps 751 mmHg 82%
    06:00 +10°C° 0 mm 6 mps 751 mmHg 79%
    07:00 +10°C° 0 mm 6 mps 750 mmHg 77%
    08:00 +11°C° 0 mm 7 mps 750 mmHg 75%
    09:00 +11°C° 0 mm 7 mps 750 mmHg 72%
    10:00 +12°C° 0 mm 7 mps 750 mmHg 70%
    11:00 +12°C° 0 mm 7 mps 750 mmHg 67%
    12:00 +14°C° 0 mm 7 mps 750 mmHg 65%
    13:00 +15°C° 0 mm 7 mps 750 mmHg 63%
    14:00 +14°C° 0 mm 6 mps 750 mmHg 65%
    15:00 +13°C° 0 mm 6 mps 750 mmHg 68%
    16:00 +13°C° 0 mm 5 mps 750 mmHg 71%
    17:00 +13°C° 0 mm 6 mps 750 mmHg 71%
    18:00 +11°C° 0 mm 6 mps 750 mmHg 71%
    19:00 +11°C° 0 mm 6 mps 750 mmHg 71%
    20:00 +11°C° 0 mm 6 mps 750 mmHg 70%
    21:00 +11°C° 0 mm 6 mps 750 mmHg 70%
    22:00 +11°C° 0 mm 6 mps 749 mmHg 69%
    23:00 +11°C° 0.1 mm 6 mps 749 mmHg 71%

    25 November, Saturday

    Time Temperature Precipitation Wind Pressure Humidity
    00:00 +11°C° 0.1 mm 6 mps 749 mmHg 73%
    01:00 +11°C° 0.1 mm 6 mps 749 mmHg 75%
    02:00 +11°C° 0.2 mm 6 mps 749 mmHg 77%
    03:00 +11°C° 0.2 mm 6 mps 748 mmHg 78%
    04:00 +11°C° 0.2 mm 6 mps 748 mmHg 79%
    05:00 +11°C° 0.3 mm 6 mps 748 mmHg 80%
    06:00 +11°C° 0.3 mm 6 mps 747 mmHg 80%
    07:00 +11°C° 0.3 mm 6 mps 747 mmHg 81%
    08:00 +11°C° 0.2 mm 6 mps 747 mmHg 80%
    09:00 +11°C° 0.2 mm 6 mps 746 mmHg 78%
    10:00 +11°C° 0.2 mm 6 mps 746 mmHg 77%
    11:00 +11°C° 0.1 mm 7 mps 746 mmHg 75%
    12:00 +12°C° 0.1 mm 8 mps 745 mmHg 72%
    13:00 +12°C° 0.1 mm 8 mps 744 mmHg 69%
    14:00 +12°C° 0.3 mm 9 mps 744 mmHg 71%
    15:00 +11°C° 0.3 mm 9 mps 744 mmHg 72%
    16:00 +11°C° 0.3 mm 9 mps 744 mmHg 74%
    17:00 +10°C° 0.1 mm 9 mps 745 mmHg 73%
    18:00 +8°C° 0.1 mm 9 mps 746 mmHg 72%
    19:00 +7°C° 0.1 mm 9 mps 747 mmHg 71%
    20:00 +6°C° 0 mm 7 mps 748 mmHg 73%
    21:00 +7°C° 0 mm 6 mps 750 mmHg 75%
    22:00 +6°C° 0 mm 4 mps 751 mmHg 77%
    23:00 +5°C° 0 mm 3 mps 752 mmHg 79%
    Show more